格洛纳斯M-738 COSMOS 2466 [GLONASS-M]

导读

COSMOS 2466是隶属于独联体(CIS)的俄罗斯格洛纳斯(GLONASS)全球卫星导航系统导航卫星,于2010年9月2日发射入轨。作为GLONASS系统的空间组网卫星,它运行于约19100公里高度的中圆轨道,运行周期约11小时15分钟,为系统提供全球范围的导航定位服务,助力该系统保持星座可用性,支持军民两用不加密的开放导航服务。

基本信息
目录编号:
37137
目录名称:
COSMOS 2466 (GLONASS)
国际标识:
2010-041A
轨道中心:
EARTH
卫星名称:
格洛纳斯M-738
卫星全名:
格洛纳斯M-738 COSMOS 2466 [GLONASS-M]
卫星状态:
在轨 (已飞行5857 天)
发射日期:
2010-09-02 UTC
国别 :
俄罗斯(独联体) (CIS)
星等 :
--
该卫星已列入 空间交会检测服务 Space Conjunction Data Service (SCDS) ,当前飞行风险评估等级: 无高风险
轨道信息
数据来源 国际轨道数据 AOE轨道数据
星历时间 2026-09-14T19:00:19+0800
1天前
查看轨道信息
2026-09-14T07:00:00+0800
2天前
查看轨道信息
半长轴 25507.243km 25507.227km
偏心率 0.0016943 0.0016953
轨道倾角 63.895° 63.895°
近地点辐角 177.054° 176.854°
升交点赤经 187.022° 187.040°
平近点角 6.665° 343.096°
近地点 19085.889km 19085.847km
远地点 19172.323km 19172.333km
周期 675.702分钟 675.701分钟
每日圈数 2.131118 2.13112
详细信息
平衡模式:
三轴稳定
覆盖范围:
全球
运营商:
列舍特涅夫卫星信息系统
运营商所在国:
俄罗斯
制造商(研发单位):
列舍特涅夫卫星信息系统
制造商所在国:
俄罗斯
使用方式:
暂无
卫星简介
格洛纳斯(GLONASS )是苏联/俄罗斯研制卫星导航系统。标准配置为24颗卫星,其中18颗卫星就能保证该系统为俄罗斯境内用户提供全部服务。该卫星已退役。
2D轨道图
3D轨道图
轨道高度分析图
轨道倾角分析图
轨道综合分析图
查看轨道综合分析图
与全量物体交会距离演化趋势 订阅飞行安全评估服务
与全量物体交会风险概率演化趋势 订阅飞行安全评估服务